カタログに戻る

TITAN 3C TRANSTAGE DEB

LostHEO
NORAD 26529·DEBRIS·🇺🇸 United States

打ち上げ Dec 21, 1965 から Cape Canaveral Space Force Station

Loading…

次のパス (今後24時間)

TLE

古いSource: Space-Track

元期: Sep 9, 2025, 04:35 UTC

1 26529U 65108AQ  25252.19136875 -.00000222  00000-0 -20416-2 0  9993
2 26529  26.3984 153.9304 6814718 223.0250 342.1889  2.65515012 34359

AllMySatでTITAN 3C TRANSTAGE DEBをリアルタイム追跡

Download on the App Store